When you browse on this site, cookies collect data to enhance your experience and personalize the content and advertising you see.
Visit our Privacy Policy to learn more. By continuing to use the site, you agree to this use of cookies and data.
  • En España
  • Lista de países
  • Para 7 días
  • Temperatura del agua
  • El tiempo en el mapa
  • Informadores
  • user-avatar
    Iniciar sesión

    Tiempo cada hora Sidi Bu-l-Abbas

    Hoy, 21 Septiembre, Sábado

    Tiempo Temperatura Precipitaciones Viento Presión Humedad
    00:00 +28°C° 0 mm 5 mps 719 mmHg 47%
    01:00 +28°C° 0.1 mm 4 mps 719 mmHg 48%
    02:00 +27°C° 0.1 mm 4 mps 718 mmHg 49%
    03:00 +27°C° 0.1 mm 3 mps 718 mmHg 51%
    04:00 +26°C° 0.1 mm 3 mps 718 mmHg 62%
    05:00 +25°C° 0.1 mm 3 mps 718 mmHg 73%
    06:00 +22°C° 0.1 mm 3 mps 718 mmHg 84%
    07:00 +24°C° 0 mm 3 mps 719 mmHg 79%
    08:00 +25°C° 0 mm 4 mps 719 mmHg 74%
    09:00 +26°C° 0 mm 4 mps 719 mmHg 69%
    10:00 +27°C° 0 mm 4 mps 719 mmHg 64%
    11:00 +28°C° 0 mm 3 mps 719 mmHg 58%
    12:00 +29°C° 0 mm 2 mps 719 mmHg 53%
    13:00 +29°C° 0 mm 3 mps 719 mmHg 55%
    14:00 +29°C° 0 mm 3 mps 718 mmHg 58%
    15:00 +28°C° 0 mm 4 mps 718 mmHg 60%
    16:00 +27°C° 0 mm 3 mps 718 mmHg 65%
    17:00 +26°C° 0 mm 3 mps 718 mmHg 70%
    18:00 +25°C° 0 mm 2 mps 718 mmHg 76%
    19:00 +25°C° 0 mm 1 mps 719 mmHg 73%
    20:00 +26°C° 0 mm 1 mps 719 mmHg 70%
    21:00 +26°C° 0 mm 1 mps 719 mmHg 67%
    22:00 +26°C° 0 mm 1 mps 719 mmHg 69%
    23:00 +26°C° 0 mm 2 mps 719 mmHg 71%

    Mañana, 22 Septiembre, Domingo

    Tiempo Temperatura Precipitaciones Viento Presión Humedad
    00:00 +25°C° 0 mm 2 mps 719 mmHg 72%
    01:00 +25°C° 0 mm 2 mps 719 mmHg 76%
    02:00 +24°C° 0 mm 2 mps 718 mmHg 80%
    03:00 +23°C° 0 mm 2 mps 718 mmHg 84%
    04:00 +23°C° 0 mm 1 mps 718 mmHg 85%
    05:00 +23°C° 0 mm 1 mps 718 mmHg 86%
    06:00 +23°C° 0 mm 1 mps 719 mmHg 87%
    07:00 +23°C° 0 mm 1 mps 719 mmHg 81%
    08:00 +24°C° 0 mm 2 mps 719 mmHg 76%
    09:00 +25°C° 0 mm 2 mps 720 mmHg 70%
    10:00 +26°C° 0 mm 2 mps 720 mmHg 64%
    11:00 +27°C° 0 mm 3 mps 720 mmHg 58%
    12:00 +28°C° 0 mm 3 mps 720 mmHg 52%
    13:00 +28°C° 0 mm 4 mps 720 mmHg 51%
    14:00 +28°C° 0 mm 4 mps 720 mmHg 50%
    15:00 +28°C° 0 mm 5 mps 720 mmHg 48%
    16:00 +27°C° 0 mm 4 mps 720 mmHg 52%
    17:00 +26°C° 0 mm 3 mps 720 mmHg 55%
    18:00 +25°C° 0 mm 3 mps 720 mmHg 59%
    19:00 +25°C° 0 mm 2 mps 720 mmHg 59%
    20:00 +25°C° 0 mm 1 mps 721 mmHg 60%
    21:00 +25°C° 0 mm 1 mps 721 mmHg 60%
    22:00 +24°C° 0 mm 1 mps 721 mmHg 61%
    23:00 +24°C° 0 mm 1 mps 721 mmHg 62%

    Pasado mañana, 23 Septiembre, Lunes

    Tiempo Temperatura Precipitaciones Viento Presión Humedad
    00:00 +24°C° 0 mm 1 mps 721 mmHg 64%
    01:00 +24°C° 0 mm 1 mps 721 mmHg 64%
    02:00 +23°C° 0 mm 1 mps 721 mmHg 65%
    03:00 +23°C° 0 mm 1 mps 721 mmHg 65%
    04:00 +23°C° 0 mm 1 mps 721 mmHg 67%
    05:00 +22°C° 0 mm 1 mps 722 mmHg 69%
    06:00 +20°C° 0 mm 0 mps 722 mmHg 71%
    07:00 +21°C° 0 mm 0 mps 722 mmHg 65%
    08:00 +24°C° 0 mm 1 mps 722 mmHg 59%
    09:00 +25°C° 0 mm 1 mps 723 mmHg 53%
    10:00 +27°C° 0 mm 1 mps 723 mmHg 48%
    11:00 +28°C° 0 mm 2 mps 723 mmHg 44%
    12:00 +29°C° 0 mm 2 mps 723 mmHg 39%
    13:00 +29°C° 0 mm 3 mps 723 mmHg 38%
    14:00 +30°C° 0 mm 3 mps 722 mmHg 37%
    15:00 +30°C° 0 mm 3 mps 722 mmHg 36%
    16:00 +29°C° 0 mm 3 mps 722 mmHg 39%
    17:00 +28°C° 0 mm 3 mps 722 mmHg 42%
    18:00 +27°C° 0 mm 3 mps 722 mmHg 45%
    19:00 +26°C° 0 mm 3 mps 722 mmHg 47%
    20:00 +26°C° 0 mm 2 mps 722 mmHg 48%
    21:00 +25°C° 0 mm 1 mps 723 mmHg 50%
    22:00 +23°C° 0 mm 0 mps 723 mmHg 52%
    23:00 +23°C° 0 mm 0 mps 723 mmHg 53%

    24 Septiembre, Martes

    Tiempo Temperatura Precipitaciones Viento Presión Humedad
    00:00 +23°C° 0 mm 0 mps 722 mmHg 55%
    01:00 +22°C° 0 mm 0 mps 722 mmHg 57%
    02:00 +22°C° 0 mm 0 mps 722 mmHg 58%
    03:00 +21°C° 0 mm 0 mps 722 mmHg 60%
    04:00 +21°C° 0 mm 0 mps 722 mmHg 61%
    05:00 +21°C° 0 mm 0 mps 722 mmHg 63%
    06:00 +20°C° 0 mm 0 mps 722 mmHg 65%
    07:00 +21°C° 0 mm 0 mps 722 mmHg 60%
    08:00 +23°C° 0 mm 0 mps 723 mmHg 55%
    09:00 +24°C° 0 mm 0 mps 723 mmHg 50%
    10:00 +27°C° 0 mm 1 mps 723 mmHg 46%
    11:00 +29°C° 0 mm 1 mps 723 mmHg 42%
    12:00 +30°C° 0 mm 2 mps 723 mmHg 38%
    13:00 +30°C° 0 mm 2 mps 723 mmHg 37%
    14:00 +31°C° 0 mm 3 mps 722 mmHg 36%
    15:00 +31°C° 0 mm 3 mps 722 mmHg 35%
    16:00 +30°C° 0 mm 3 mps 722 mmHg 37%
    17:00 +29°C° 0 mm 3 mps 721 mmHg 40%
    18:00 +28°C° 0 mm 3 mps 721 mmHg 43%
    19:00 +28°C° 0 mm 2 mps 722 mmHg 45%
    20:00 +27°C° 0 mm 1 mps 722 mmHg 47%
    21:00 +25°C° 0 mm 0 mps 722 mmHg 49%
    22:00 +24°C° 0 mm 0 mps 722 mmHg 51%
    23:00 +24°C° 0 mm 0 mps 721 mmHg 53%

    25 Septiembre, Miércoles

    Tiempo Temperatura Precipitaciones Viento Presión Humedad
    00:00 +23°C° 0 mm 0 mps 721 mmHg 55%
    01:00 +23°C° 0 mm 0 mps 721 mmHg 56%
    02:00 +22°C° 0 mm 0 mps 721 mmHg 57%
    03:00 +22°C° 0 mm 0 mps 720 mmHg 59%
    04:00 +22°C° 0 mm 0 mps 720 mmHg 59%
    05:00 +23°C° 0 mm 1 mps 720 mmHg 60%
    06:00 +23°C° 0 mm 1 mps 720 mmHg 60%
    07:00 +25°C° 0 mm 1 mps 721 mmHg 52%
    08:00 +27°C° 0 mm 1 mps 721 mmHg 44%
    09:00 +29°C° 0 mm 1 mps 722 mmHg 36%
    10:00 +30°C° 0 mm 2 mps 722 mmHg 31%
    11:00 +31°C° 0 mm 2 mps 722 mmHg 27%
    12:00 +33°C° 0 mm 3 mps 722 mmHg 22%
    13:00 +34°C° 0 mm 3 mps 721 mmHg 22%
    14:00 +34°C° 0 mm 4 mps 721 mmHg 21%
    15:00 +34°C° 0 mm 4 mps 720 mmHg 20%
    16:00 +33°C° 0 mm 4 mps 720 mmHg 22%
    17:00 +30°C° 0 mm 3 mps 720 mmHg 24%
    18:00 +29°C° 0 mm 2 mps 720 mmHg 26%
    19:00 +28°C° 0 mm 2 mps 720 mmHg 29%
    20:00 +28°C° 0 mm 1 mps 721 mmHg 32%
    21:00 +25°C° 0 mm 0 mps 721 mmHg 35%
    22:00 +25°C° 0 mm 0 mps 721 mmHg 36%
    23:00 +24°C° 0 mm 0 mps 720 mmHg 37%

    26 Septiembre, Jueves

    Tiempo Temperatura Precipitaciones Viento Presión Humedad
    00:00 +23°C° 0 mm 0 mps 720 mmHg 38%
    01:00 +23°C° 0 mm 0 mps 720 mmHg 40%
    02:00 +23°C° 0 mm 0 mps 720 mmHg 41%
    03:00 +22°C° 0 mm 0 mps 720 mmHg 42%
    04:00 +22°C° 0 mm 0 mps 720 mmHg 43%
    05:00 +21°C° 0 mm 0 mps 720 mmHg 44%
    06:00 +21°C° 0 mm 0 mps 720 mmHg 45%
    07:00 +23°C° 0 mm 0 mps 721 mmHg 40%
    08:00 +24°C° 0 mm 0 mps 721 mmHg 35%
    09:00 +26°C° 0 mm 0 mps 722 mmHg 30%
    10:00 +30°C° 0 mm 1 mps 722 mmHg 28%
    11:00 +31°C° 0 mm 1 mps 722 mmHg 26%
    12:00 +32°C° 0 mm 2 mps 722 mmHg 24%
    13:00 +32°C° 0 mm 2 mps 721 mmHg 24%
    14:00 +33°C° 0 mm 3 mps 721 mmHg 24%
    15:00 +34°C° 0 mm 4 mps 720 mmHg 24%
    16:00 +31°C° 0 mm 3 mps 720 mmHg 27%
    17:00 +30°C° 0 mm 3 mps 720 mmHg 29%
    18:00 +29°C° 0 mm 2 mps 720 mmHg 31%
    19:00 +28°C° 0 mm 2 mps 720 mmHg 34%
    20:00 +27°C° 0 mm 1 mps 721 mmHg 36%
    21:00 +25°C° 0 mm 0 mps 721 mmHg 39%
    22:00 +24°C° 0 mm 0 mps 721 mmHg 40%
    23:00 +24°C° 0 mm 0 mps 720 mmHg 42%
    Mostrar más